Location: Bartshausen
(51.8454°N, 9.8167°E)
Time: 06:25:00
(UTC+00:00)

Helios 1A Rocket - Pass Details

Date: 08 November 2025
Orbit: 439 x 451 km, 98.3° (Epoch: 11 December)

Event Time Altitude Azimuth Distance (km) Brightness Sun altitude
Rises 05:24:54 0° 202° (SSW) 2,448 6.1 -9.9°
Reaches altitude 10° 05:27:26 10° 222° (SW) 1,577 4.9 -9.6°
Maximum altitude 05:29:46 18° 266° (W) 1,192 4.0 -9.2°
Enters shadow 05:32:04 10° 310° (NW) 1,564 4.6 -8.9°
